Location: Voyageurs National Park
(48.5020°N, 92.9292°W)
Time: 09:49:38
(UTC-06:00)

COSMOS 2455 - Pass Details

Date: 19 January 2018
Orbit: 898 x 912 km, 67.1° (Epoch: 24 February)

Event Time Altitude Azimuth Distance (km) Brightness Sun altitude
Exits shadow 06:48:32 14° 291° (WNW) 2,321 4.3 -10.9°
Maximum altitude 06:51:53 21° 331° (NNW) 1,917 4.1 -10.4°
Drops below altitude 10° 06:56:25 10° 20° (NNE) 2,607 5.3 -9.7°
Sets 06:59:37 0° 36° (NE) 3,553 6.2 -9.2°
